Regional Weather Roundup
Issued by NWS

Home | Current Version | Previous Version | Text Only | Print | Product List | Glossary On
Versions: 1 2 3 4 5 6 7 8 9 10 11 12 13 14 15 16 17 18 19 20 21 22 23 24 25 26 27 28 29 30 31 32 33 34 35 36 37 38 39 40 41 42 43 44 45 46 47 48 49 50
000
ASUS45 KBOI 062210
RWRID
WEATHER ROUNDUP FOR IDAHO
NATIONAL WEATHER SERVICE BOISE ID
400 PM MDT WED MAY 06 2015

NOTE: "FAIR" INDICATES FEW OR NO CLOUDS BELOW 12000 FEET
WITH NO SIGNIFICANT WEATHER AND/OR OBSTRUCTIONS TO VISIBILITY

IDZ012-014-062300-
SOUTHWEST IDAHO


CITY           SKY/WX    TMP DP  RH WIND       PRES   REMARKS
BOISE          PTSUNNY   62  22  21 NW12      29.79F
CALDWELL       MOSUNNY   63  27  25 N13       29.81F
MOUNTAIN HOME  MOSUNNY   64  18  16 NW24G33   29.76F
$$

IDZ016-017-062300-
SOUTHCENTRAL IDAHO


CITY           SKY/WX    TMP DP  RH WIND       PRES   REMARKS
BURLEY         CLOUDY    58  32  37 W9        29.74F
JEROME         PTSUNNY   60  24  25 W13       29.76F
TWIN FALLS     CLOUDY    62  21  20 W15       29.73F
$$

IDZ019>023-062300-
SOUTHEAST IDAHO


CITY           SKY/WX    TMP DP  RH WIND       PRES   REMARKS
IDAHO FALLS    PTSUNNY   64  41  42 NW10      29.71F
POCATELLO      MOSUNNY   62  28  27 W7        29.73F
REXBURG        MOSUNNY   62  40  44 N8        29.72F
$$

IDZ006-010-011-018-031-032-062300-
CENTRAL IDAHO MOUNTAINS


CITY           SKY/WX    TMP DP  RH WIND       PRES   REMARKS
MCCALL         CLOUDY    46  31  55 NW6       29.84S
HAILEY         CLOUDY    55  32  41 E8        29.76F
STANLEY          N/A     50  22  33 CALM      29.79S
SALMON         PTSUNNY   63  25  23 NE3       29.70F
CHALLIS        CLOUDY    59  24  26 N8        29.72F
$$

IDZ002-004-006-007-026-062300-
NORTHERN IDAHO


CITY           SKY/WX    TMP DP  RH WIND       PRES   REMARKS
LEWISTON       MOSUNNY   64  31  28 NW10G18   29.90F
LOWELL           N/A     65  30  27 VRB5      29.82F
COEUR D`ALENE  MOSUNNY   59  27  29 W6G17     29.92F
MULLAN PASS    PTSUNNY   42  19  39 N5        29.91F
$$


USA.gov is the U.S. government's official web portal to all federal, state and local government web resources and services.